Location: Huesca
(42.1318°N, 0.4078°W)
Time: 21:21:00
(UTC+02:00)

DIWATA 2B (PO-101) - Pass Details

Date: 27 April 2024
Orbit: 567 x 577 km, 98.1° (Epoch: 16 June)

Event Time Altitude Azimuth Distance (km) Brightness Sun altitude
Exits shadow 04:10:18 - 124° (SE) 2,676 ? -26.3°
Reaches altitude 10° 04:12:42 10° 106° (ESE) 1,902 ? -26.1°
Drops below altitude 10° 04:18:07 10° 24° (NNE) 1,908 ? -25.5°
Enters shadow 05:24:38 -46° 169° (S) 9,960 ? -16.7°
Maximum altitude 05:50:15 41° 261° (W) 848 ? -12.8°
